Regional Weather Roundup
Issued by NWS Nashville, TN

Home | Current Version | Previous Version | Text Only | Print | Product List | Glossary On
Versions: 1 2 3 4 5 6 7 8 9 10 11 12 13 14 15 16 17 18 19 20 21 22 23 24 25 26 27 28 29 30 31 32 33 34 35 36 37 38 39 40 41 42 43 44 45 46 47 48 49 50
000
ASUS44 KOHX 011715
RWROHX
MIDDLE TENNESSEE HOURLY WEATHER ROUNDUP
NATIONAL WEATHER SERVICE NASHVILLE TN
1100 AM CST SUN FEB 01 2015

NOTE: "FAIR" INDICATES FEW OR NO CLOUDS BELOW 12,000 FEET WITH
NO SIGNIFICANT WEATHER AND/OR OBSTRUCTIONS TO VISIBILITY.

* THESE REPORTS ARE NOT UNDER NWS QUALITY CONTROL AND MAY NOT
  REPORT WEATHER SUCH AS PRECIPITATION AND FOG.


TNZ005>011-023>034-057-059-062>066-078-080-011800
...NORTHERN MIDDLE TENNESSEE...

CITY           SKY/WX    TMP DP  RH WIND       PRES   REMARKS
CLARKSVILLE    RAIN      46  44  93 S12G18    29.80F FOG
CROSSVILLE     CLOUDY    45  31  58 S12G23    30.01F
GALLATIN       CLOUDY    45  42  89 S14G25    29.89F
DICKSON        CLOUDY    45  43  93 S14       29.83F
LEBANON        CLOUDY    45  41  86 S16       29.87F
LIVINGSTON     CLOUDY    47  36  65 S14       29.93F
NASHVILLE      CLOUDY    46  43  87 S16       29.87F
WEST NASHVILLE CLOUDY    45  45 100 SE8       29.88F
SMYRNA         LGT RAIN  46  42  86 S12       29.90F
SPARTA         PTSUNNY   46  36  66 S13       29.94F
$$
TNZ056-058-060-061-075>077-079-093>097-011800
...SOUTHERN MIDDLE TENNESSEE...

CITY           SKY/WX    TMP DP  RH WIND       PRES   REMARKS
COLUMBIA       CLOUDY   N/A N/A N/A S15G25    29.86F
LEWISBURG      CLOUDY    46  42  86 S14       29.91F
MCMINNVILLE    PTSUNNY   48  43  81 S9G23     29.94F
MURFREESBORO   CLOUDY    47  41  80 S13       29.90F
SHELBYVILLE    CLOUDY    48  43  81 S13       29.93F
TULLAHOMA      CLOUDY    46  41  81 S12       29.96F
WINCHESTER     CLOUDY    46  41  81 SE10      29.98F
$$


...KEY TO REMARKS...
VSB - VISIBILITY IN MILES
WCI - WIND CHILL INDEX
HX  - HEAT INDEX



USA.gov is the U.S. government's official web portal to all federal, state and local government web resources and services.